Home   Weather   Sechelt   Past weeks
Flag for Canada

Past Weather in Sechelt, British Columbia, Canada — Yesterday and Last 2 Weeks

Now
60 °F

Cool.


Feels Like: 60 °F
Forecast: 60 / 53 °F
Wind: 1 mph from Northeast

Location: Entrance Island

Current Time: Sep 19, 2019 at 4:27:52 pm

Latest Report: Sep 19, 2019 at 3:00 pm


Visibility: N/A

Pressure: 30.07 "Hg

Humidity: 86%

Dew Point: 56 °F

Location of SecheltLocation

Past Weather in Sechelt — Graph

°F

Sechelt Temperature Yesterday

Maximum temperature yesterday: 62 °F (at 8:00 pm)
Minimum temperature yesterday: 54 °F (at 9:00 am)
Average temperature yesterday: 58 °F

High & Low Weather Summary for the Past Weeks

 TemperatureHumidityPressure
High71 °F (Sep 5, 10:00 pm)100% (Sep 18, 9:00 am)30.15 "Hg (Sep 18, 9:00 am)
Low54 °F (Sep 17, 11:00 pm)59% (Sep 5, 10:00 pm)29.61 "Hg (Sep 17, 10:00 am)
Average62 °F86%29.91 "Hg
* Reported Sep 4 3:00 pm — Sep 19 3:00 pm, Sechelt. Weather by CustomWeather, © 2019

Note: Actual official high and low records may vary slightly from our data, if they occured in-between our weather recording intervals... More about our weather records

Advertising

Sechelt Weather History for the Previous 24 Hours

Scroll right to see more
 ConditionsComfort  
Time TempWeatherWind HumidityBarometerVisibility
3:00 pm
Thu, Sep 19
60 °FCool.1 mph86%30.07 "HgN/A
2:00 pm60 °FCool.2 mph85%30.07 "HgN/A
1:00 pm60 °FCool.3 mph85%30.07 "HgN/A
12:00 pm60 °FCool.6 mph86%30.07 "HgN/A
11:00 am59 °FCool.10 mph86%30.08 "HgN/A
10:00 am59 °FCool.13 mph87%30.08 "HgN/A
9:00 am59 °FCool.9 mph87%30.07 "HgN/A
8:00 am59 °FCool.12 mph87%30.06 "HgN/A
7:00 am60 °FCool.14 mph88%30.04 "HgN/A
6:00 am58 °FCool.10 mph92%30.03 "HgN/A
5:00 am60 °FCool.12 mph86%30.02 "HgN/A
4:00 am60 °FCool.12 mph85%30.02 "HgN/A
3:00 am61 °FCool.14 mph85%30.02 "HgN/A
2:00 am59 °FCool.6 mph89%30.02 "HgN/A
1:00 am59 °FCool.7 mph88%30.00 "HgN/A
12:00 am60 °FCool.7 mph87%29.99 "HgN/A
11:00 pm
Wed, Sep 18
60 °FCool.6 mph84%29.98 "HgN/A
10:00 pm60 °FCool.6 mph82%29.97 "HgN/A
9:00 pm61 °FCool.7 mph79%29.95 "HgN/A
8:00 pm62 °FCool.6 mph79%29.93 "HgN/A
7:00 pm61 °FCool.13 mph80%29.92 "HgN/A
6:00 pm61 °FCool.12 mph78%29.92 "HgN/A
5:00 pm61 °FCool.10 mph81%29.91 "HgN/A
4:00 pm61 °FCool.13 mph79%29.91 "HgN/A
Weather by CustomWeather, © 2019

See weather overview